Date String (YYYY-MM-DD hh:mm:ss) UTC,Instrument flags,absolute air pressure of the measurement (hPa),sample flow rate (lpm),inlet stack bypass flow (lpm),air temperature of the measurement (°C),ambient temperature measured by the external sensor (°C),aerosol sample conditioner tube jacket temperature (°C),OPC LED temperature (°C),internal box temperature (°C),relative humidity of the measurement (%),span deviation,mass concentration of particles derived from Lorenz-Mie calculation of OPC scattering (μg/m³),mass concentration of particles derived from Lorenz-Mie calculation of OPC scattering (μg/m³),mass concentration of particles derived from Lorenz-Mie calculation of OPC scattering (μg/m³)
DateTimeUTC,F1_M11,P_M11,Q1_M11,Q2_M11,T1_M11,T2_M11,T3_M11,T4_M11,T5_M11,U1_M11,ZSPAN_M11,X0_M11,X2_M11,X1_M11
2024-02-04 01:00:00,SystemResetWarning,0816.9,5.00,000.00,019.5,018.9,000.0,028.0,021.2,25.7,0000.0,0001.91,0001.55,0001.47
2024-02-04 01:01:00,SystemResetWarning,0817.0,5.00,000.00,019.5,018.9,000.0,028.0,021.2,25.7,0000.0,0001.87,0001.51,0001.45
2024-02-04 01:02:00,SystemResetWarning,0817.0,5.00,000.00,019.5,018.9,000.0,028.0,021.2,25.7,0000.0,0001.89,0001.51,0001.44
2024-02-04 01:03:00,SystemResetWarning,0817.1,5.00,000.00,019.5,018.9,000.0,028.0,021.2,25.7,0000.0,0001.89,0001.50,0001.42
2024-02-04 01:04:00,SystemResetWarning,0817.1,5.01,000.00,019.6,018.9,000.0,028.0,021.3,25.7,0000.0,0001.86,0001.48,0001.40
2024-02-04 01:05:00,SystemResetWarning,0817.1,5.00,000.00,019.5,018.9,000.0,028.0,021.2,25.7,0000.0,0001.91,0001.49,0001.40
2024-02-04 01:06:00,SystemResetWarning,0817.1,5.00,000.00,019.5,018.9,000.0,028.0,021.2,25.7,0000.0,0001.94,0001.52,0001.42
2024-02-04 01:07:00,SystemResetWarning,0817.1,4.99,000.00,019.5,018.9,000.0,027.9,021.1,25.7,0000.0,0002.03,0001.58,0001.48
2024-02-04 01:08:00,SystemResetWarning,0817.1,5.00,000.00,019.5,018.9,000.0,027.9,021.1,25.7,0000.0,0002.17,0001.68,0001.57
2024-02-04 01:09:00,SystemResetWarning,0817.1,5.00,000.00,019.5,018.9,000.0,027.9,021.1,25.8,0000.0,0002.39,0001.86,0001.73
2024-02-04 01:10:00,SystemResetWarning,0817.2,5.00,000.00,019.5,018.9,000.0,027.9,021.1,25.7,0000.0,0002.59,0002.03,0001.90
2024-02-04 01:11:00,SystemResetWarning,0817.2,5.00,000.00,019.5,018.8,000.0,027.9,021.1,25.8,0000.0,0002.76,0002.20,0002.07
2024-02-04 01:12:00,SystemResetWarning,0817.2,5.01,000.00,019.4,018.8,000.0,027.9,021.0,25.8,0000.0,0002.92,0002.37,0002.24
2024-02-04 01:13:00,SystemResetWarning,0817.3,5.00,000.00,019.4,018.7,000.0,027.9,020.9,25.9,0000.0,0003.05,0002.50,0002.39
2024-02-04 01:14:00,SystemResetWarning,0817.2,5.00,000.00,019.4,018.7,000.0,027.8,020.9,25.9,0000.0,0003.22,0002.66,0002.55
2024-02-04 01:15:00,SystemResetWarning,0817.3,5.00,000.00,019.4,018.7,000.0,027.8,020.9,26.0,0000.0,0003.43,0002.82,0002.70
2024-02-04 01:16:00,SystemResetWarning,0817.3,5.00,000.00,019.3,018.7,000.0,027.8,020.9,26.0,0000.0,0003.58,0002.98,0002.86
2024-02-04 01:17:00,SystemResetWarning,0817.4,5.00,000.00,019.3,018.7,000.0,027.8,020.9,26.1,0000.0,0003.76,0003.11,0002.99
2024-02-04 01:18:00,SystemResetWarning,0817.4,5.00,000.00,019.3,018.7,000.0,027.8,021.0,26.1,0000.0,0003.93,0003.19,0003.10
2024-02-04 01:19:00,SystemResetWarning,0817.4,5.00,000.00,019.3,018.7,000.0,027.8,021.0,26.0,0000.0,0004.03,0003.25,0003.16
2024-02-04 01:20:00,SystemResetWarning,0817.4,5.00,000.00,019.3,018.8,000.0,027.8,021.0,26.0,0000.0,0004.08,0003.28,0003.19
2024-02-04 01:21:00,SystemResetWarning,0817.5,5.00,000.00,019.4,018.8,000.0,027.8,021.1,26.0,0000.0,0004.07,0003.28,0003.19
2024-02-04 01:22:00,SystemResetWarning,0817.5,5.00,000.00,019.4,018.8,000.0,027.8,021.1,26.0,0000.0,0004.05,0003.27,0003.18
2024-02-04 01:23:00,SystemResetWarning,0817.5,5.00,000.00,019.4,018.8,000.0,027.8,021.1,26.5,0000.0,0004.03,0003.26,0003.17
2024-02-04 01:24:00,SystemResetWarning,0817.5,5.00,000.00,019.4,018.8,000.0,027.8,021.1,27.4,0000.0,0004.13,0003.29,0003.19
2024-02-04 01:25:00,SystemResetWarning,0817.5,5.00,000.00,019.4,018.9,000.0,027.8,021.2,26.6,0000.0,0004.28,0003.34,0003.22
2024-02-04 01:26:00,SystemResetWarning,0817.5,5.00,000.00,019.4,018.9,000.0,027.8,021.2,26.3,0000.0,0004.29,0003.37,0003.26
2024-02-04 01:27:00,SystemResetWarning,0817.5,5.00,000.00,019.4,018.9,000.0,027.8,021.2,26.2,0000.0,0004.28,0003.38,0003.28
2024-02-04 01:28:00,SystemResetWarning,0817.5,5.00,000.00,019.4,018.9,000.0,027.8,021.2,26.2,0000.0,0004.23,0003.36,0003.26
2024-02-04 01:29:00,SystemResetWarning,0817.5,5.00,000.00,019.5,018.9,000.0,027.8,021.2,26.1,0000.0,0004.14,0003.32,0003.23
2024-02-04 01:30:00,SystemResetWarning,0817.5,5.01,000.00,019.5,018.9,000.0,027.8,021.2,26.1,0000.0,0004.08,0003.28,0003.19
2024-02-04 01:31:00,SystemResetWarning,0817.5,5.00,000.00,019.5,018.9,000.0,027.8,021.2,26.1,0000.0,0004.00,0003.23,0003.15
2024-02-04 01:32:00,SystemResetWarning,0817.6,5.00,000.00,019.5,018.9,000.0,027.9,021.2,26.0,0000.0,0003.97,0003.20,0003.11
2024-02-04 01:33:00,SystemResetWarning,0817.6,4.99,000.00,019.5,018.9,000.0,027.8,021.2,26.0,0000.0,0004.00,0003.19,0003.06
2024-02-04 01:34:00,SystemResetWarning,0817.6,5.00,000.00,019.5,018.9,000.0,027.9,021.2,26.0,0000.0,0003.99,0003.16,0002.98
2024-02-04 01:35:00,SystemResetWarning,0817.6,4.99,000.00,019.5,019.0,000.0,027.9,021.2,26.0,0000.0,0003.92,0003.10,0002.88
2024-02-04 01:36:00,SystemResetWarning,0817.6,5.00,000.00,019.5,019.0,000.0,027.9,021.2,26.0,0000.0,0003.71,0002.98,0002.77
2024-02-04 01:37:00,SystemResetWarning,0817.6,5.00,000.00,019.5,019.0,000.0,027.9,021.3,26.0,0000.0,0003.57,0002.84,0002.63
2024-02-04 01:38:00,SystemResetWarning,0817.6,5.02,000.00,019.5,019.0,000.0,027.9,021.3,25.9,0000.0,0003.49,0002.71,0002.49
2024-02-04 01:39:00,SystemResetWarning,0817.6,5.00,000.00,019.5,018.9,000.0,027.9,021.3,26.0,0000.0,0003.46,0002.66,0002.42
2024-02-04 01:40:00,SystemResetWarning,0817.6,5.00,000.00,019.5,018.9,000.0,027.9,021.3,26.0,0000.0,0003.44,0002.63,0002.38
2024-02-04 01:41:00,SystemResetWarning,0817.7,4.99,000.00,019.5,018.9,000.0,027.9,021.3,26.0,0000.0,0003.36,0002.57,0002.33
2024-02-04 01:42:00,SystemResetWarning,0817.7,4.99,000.00,019.5,018.9,000.0,027.9,021.3,25.9,0000.0,0003.28,0002.50,0002.27
2024-02-04 01:43:00,SystemResetWarning,0817.7,5.01,000.00,019.5,018.9,000.0,027.9,021.2,25.9,0000.0,0003.20,0002.44,0002.21
2024-02-04 01:44:00,SystemResetWarning,0817.7,5.01,000.00,019.5,018.9,000.0,027.9,021.3,25.9,0000.0,0002.98,0002.30,0002.11
2024-02-04 01:45:00,SystemResetWarning,0817.7,5.00,000.00,019.5,018.9,000.0,027.9,021.2,25.9,0000.0,0002.90,0002.24,0002.04
2024-02-04 01:46:00,SystemResetWarning,0817.8,4.99,000.00,019.5,018.9,000.0,027.9,021.3,25.9,0000.0,0002.85,0002.25,0002.07
2024-02-04 01:47:00,SystemResetWarning,0817.7,5.00,000.00,019.5,018.9,000.0,027.9,021.2,25.8,0000.0,0003.16,0002.34,0002.15
2024-02-04 01:48:00,SystemResetWarning,0817.8,5.00,000.00,019.5,018.9,000.0,027.9,021.2,25.8,0000.0,0004.17,0002.39,0002.21
2024-02-04 01:49:00,SystemResetWarning,0817.8,5.00,000.00,019.5,018.9,000.0,027.9,021.2,25.8,0000.0,0004.12,0002.43,0002.26
2024-02-04 01:50:00,SystemResetWarning,0817.8,5.01,000.00,019.5,018.9,000.0,027.9,021.2,25.7,0000.0,0004.11,0002.50,0002.36
2024-02-04 01:51:00,SystemResetWarning,0817.7,5.01,000.00,019.5,018.9,000.0,027.9,021.2,25.8,0000.0,0004.13,0002.60,0002.47
2024-02-04 01:52:00,SystemResetWarning,0817.7,4.99,000.00,019.5,018.9,000.0,027.9,021.2,25.7,0000.0,0004.27,0002.74,0002.62
2024-02-04 01:53:00,SystemResetWarning,0817.7,4.99,000.00,019.5,018.9,000.0,027.9,021.3,25.7,0000.0,0004.41,0002.90,0002.76
2024-02-04 01:54:00,SystemResetWarning,0817.8,5.00,000.00,019.5,018.9,000.0,027.9,021.2,25.7,0000.0,0004.53,0003.06,0002.93
2024-02-04 01:55:00,SystemResetWarning,0817.8,4.99,000.00,019.5,018.9,000.0,027.9,021.2,25.7,0000.0,0004.69,0003.17,0003.09
2024-02-04 01:56:00,SystemResetWarning,0817.8,5.00,000.00,019.5,018.9,000.0,027.9,021.2,25.7,0000.0,0004.79,0003.26,0003.20
2024-02-04 01:57:00,SystemResetWarning,0817.8,5.01,000.00,019.5,018.9,000.0,027.9,021.2,25.7,0000.0,0004.83,0003.32,0003.27
2024-02-04 01:58:00,SystemResetWarning,0817.8,5.00,000.00,019.5,018.9,000.0,027.9,021.2,25.7,0000.0,0004.79,0003.36,0003.31
2024-02-04 01:59:00,SystemResetWarning,0817.8,5.00,000.00,019.5,018.9,000.0,027.9,021.2,25.8,0000.0,0003.69,0003.41,0003.35
